Location: *
(24.1434°N, 56.8729°E)
Time: 21:44:28
(UTC+00:00)

STARLINK-1119 - Pass Details

Date: 09 April 2020
Orbit: 548 x 551 km, 53.0° (Epoch: 25 May)

Event Time Altitude Azimuth Distance (km) Brightness Sun altitude
Rises 15:17:35 0° 318° (NW) 2,723 8.2 -11.0°
Reaches altitude 10° 15:19:49 10° 316° (NW) 1,827 7.2 -11.5°
Maximum altitude 15:23:57 70° 233° (SW) 588 3.8 -12.4°
Enters shadow 15:27:48 12° 150° (SSE) 1,712 5.7 -13.3°
